Location: Casilda
(33.0440°S, 61.1680°W)
Time: 02:40:28
(UTC-03:00)

ISS - Pass Details

Date: 09 November 2018
Orbit: 401 x 409 km, 51.6° (Epoch: 21 November)

Event Time Altitude Azimuth Distance (km) Brightness Sun altitude
Rises 20:36:49 0° 228° (SW) 2,353 1.9 -11.8°
Reaches altitude 10° 20:38:56 10° 230° (SW) 1,484 0.5 -12.2°
Maximum altitude 20:42:15 71° 315° (NW) 436 -3.7 -12.8°
Enters shadow 20:44:12 22° 35° (NE) 944 -2.5 -13.1°
